Eastsound, WA

11:55 AM PDT on May 23, 2018 (GMT -0700)
Orcas Island

Weather History for KORS - December, 2012

Change the Weather History Date:

Saturday, December 22, 2012

  Actual Average (KFHR) Record (KFHR)
Temperature  
Mean Temperature 42 °F -  
Max Temperature 46 °F 43 °F 54 °F (2005)
Min Temperature 37 °F 34 °F 15 °F (1998)
Degree Days  
Heating Degree Days 24    
Moisture  
Dew Point 36 °F    
Average Humidity 77    
Maximum Humidity 93    
Minimum Humidity 70    
Precipitation  
Precipitation 0.00 in - - ()
Sea Level Pressure  
Sea Level Pressure 29.54 in    
Wind  
Wind Speed 6 mph (SE)    
Max Wind Speed 14 mph    
Max Gust Speed 28 mph    
Visibility 10 miles    
Events Rain    
Averages and records for this station are not official NWS values.
T = Trace of Precipitation, MM = Missing Value Source: NWS Daily Summary

Daily Weather History Graph

Daily Weather History Graph

Search for Another Location

Airport or City:

Astronomy

Dec. 22, 2012 Rise Set
Actual Time 8:02 AM PST 4:18 PM PST
Civil Twilight 7:25 AM PST 4:55 PM PST
Nautical Twilight 6:44 AM PST 5:36 PM PST
Astronomical Twilight 6:06 AM PST 6:14 PM PST
Moon 12:53 PM PST (12/22) 2:37 AM PST (12/22)
Length of Visible Light 9h 30m
Length of Day
8h 16m
Waxing Gibbous, 74% of the Moon is Illuminated
Dec 22
Waxing Gibbous
Dec 28
Full
Jan 4
Last Quarter
Jan 11
New
Jan 18
First Quarter

Hourly Weather History & Observations

Time (PST) Temp. Windchill Dew Point Humidity Pressure Visibility Wind Dir Wind Speed Gust Speed Precip Events Conditions
12:15 AM 37.4 °F 34.9 °F 32.0 °F 81% 29.66 in 10.0 mi East 3.5 mph - N/A   Partly Cloudy
12:35 AM 39.2 °F 37.0 °F 33.8 °F 81% 29.66 in 10.0 mi East 3.5 mph - N/A   Mostly Cloudy
12:55 AM 39.2 °F - 33.8 °F 81% 29.66 in 10.0 mi Calm Calm - N/A   Mostly Cloudy
1:15 AM 39.2 °F 34.2 °F 33.8 °F 81% 29.65 in 10.0 mi ENE 6.9 mph - N/A   Overcast
1:35 AM 39.2 °F 35.0 °F 35.6 °F 87% 29.64 in 10.0 mi ENE 5.8 mph - N/A   Overcast
2:15 AM 39.2 °F 37.0 °F 35.6 °F 87% 29.64 in 10.0 mi ENE 3.5 mph - N/A   Overcast
2:35 AM 39.2 °F 35.0 °F 35.6 °F 87% 29.63 in 10.0 mi East 5.8 mph - N/A   Mostly Cloudy
2:55 AM 39.2 °F 35.9 °F 35.6 °F 87% 29.62 in 10.0 mi North 4.6 mph - N/A   Scattered Clouds
3:15 AM 39.2 °F 35.0 °F 32.0 °F 75% 29.62 in 10.0 mi NE 5.8 mph 17.3 mph N/A   Scattered Clouds
3:55 AM 39.2 °F 32.5 °F 32.0 °F 75% 29.59 in 10.0 mi NNE 10.4 mph 17.3 mph N/A   Scattered Clouds
4:15 AM 39.2 °F 35.9 °F 32.0 °F 75% 29.59 in 10.0 mi NNE 4.6 mph - N/A   Mostly Cloudy
4:35 AM 39.2 °F 34.2 °F 32.0 °F 75% 29.57 in 10.0 mi NNE 6.9 mph - N/A   Partly Cloudy
4:55 AM 39.2 °F 32.0 °F 32.0 °F 75% 29.56 in 10.0 mi NE 11.5 mph 17.3 mph N/A   Scattered Clouds
5:15 AM 39.2 °F 35.0 °F 32.0 °F 75% 29.53 in 10.0 mi NE 5.8 mph - N/A   Partly Cloudy
5:35 AM 39.2 °F 33.0 °F 32.0 °F 75% 29.52 in 10.0 mi ENE 9.2 mph 18.4 mph N/A   Clear
5:55 AM 39.2 °F - 32.0 °F 75% 29.52 in 10.0 mi Calm Calm - N/A   Mostly Cloudy
6:15 AM 39.2 °F 35.9 °F 32.0 °F 75% 29.51 in 10.0 mi East 4.6 mph - N/A   Mostly Cloudy
6:35 AM 39.2 °F 33.6 °F 32.0 °F 75% 29.50 in 10.0 mi NE 8.1 mph - N/A   Mostly Cloudy
6:55 AM 39.2 °F 32.0 °F 32.0 °F 75% 29.49 in 10.0 mi NE 11.5 mph 18.4 mph N/A   Scattered Clouds
7:15 AM 39.2 °F 34.2 °F 32.0 °F 75% 29.49 in 10.0 mi ENE 6.9 mph - N/A   Scattered Clouds
7:35 AM 39.2 °F 35.9 °F 32.0 °F 75% 29.49 in 10.0 mi West 4.6 mph - N/A   Scattered Clouds
7:55 AM 41.0 °F 36.4 °F 32.0 °F 70% 29.49 in 10.0 mi North 6.9 mph - N/A   Partly Cloudy
8:15 AM 41.0 °F 35.8 °F 32.0 °F 70% 29.49 in 10.0 mi North 8.1 mph - N/A   Scattered Clouds
8:35 AM 41.0 °F - 32.0 °F 70% 29.48 in 10.0 mi Calm Calm - N/A   Mostly Cloudy
8:55 AM 41.0 °F 37.1 °F 32.0 °F 70% 29.48 in 10.0 mi NE 5.8 mph - N/A   Scattered Clouds
9:15 AM 41.0 °F - 32.0 °F 70% 29.48 in 10.0 mi Calm Calm - N/A   Clear
9:35 AM 41.0 °F 39.0 °F 32.0 °F 70% 29.49 in 9.0 mi ENE 3.5 mph - N/A   Clear
9:55 AM 39.2 °F 35.9 °F 35.6 °F 87% 29.49 in 4.0 mi East 4.6 mph - N/A Rain Light Rain
10:15 AM 39.2 °F 33.6 °F 37.4 °F 93% 29.49 in 3.0 mi ENE 8.1 mph - N/A Rain Light Rain
10:35 AM 39.2 °F 35.9 °F 37.4 °F 93% 29.48 in 6.0 mi NNE 4.6 mph - N/A Rain Light Rain
10:55 AM 41.0 °F - 39.2 °F 93% 29.48 in 7.0 mi Calm Calm - N/A Rain Light Rain
11:15 AM 42.8 °F 41.1 °F 39.2 °F 87% 29.48 in 10.0 mi West 3.5 mph - N/A   Mostly Cloudy
11:35 AM 44.6 °F 40.7 °F 37.4 °F 76% 29.47 in 7.0 mi East 6.9 mph - N/A Rain Light Rain
11:55 AM 44.6 °F 42.2 °F 39.2 °F 81% 29.47 in 10.0 mi SSE 4.6 mph - N/A   Partly Cloudy
12:15 PM 44.6 °F 39.2 °F 37.4 °F 76% 29.46 in 10.0 mi SSE 10.4 mph 16.1 mph N/A   Clear
12:35 PM 44.6 °F 40.7 °F 37.4 °F 76% 29.46 in 10.0 mi SSE 6.9 mph 21.9 mph N/A   Scattered Clouds
12:55 PM 44.6 °F 40.2 °F 37.4 °F 76% 29.46 in 10.0 mi South 8.1 mph - N/A   Scattered Clouds
1:15 PM 46.4 °F 41.9 °F 37.4 °F 71% 29.46 in 10.0 mi SSE 9.2 mph 18.4 mph N/A   Scattered Clouds
1:35 PM 44.6 °F 40.2 °F 39.2 °F 81% 29.47 in 10.0 mi SSE 8.1 mph 18.4 mph N/A   Mostly Cloudy
1:55 PM 44.6 °F 40.7 °F 37.4 °F 76% 29.47 in 10.0 mi South 6.9 mph 17.3 mph N/A   Overcast
2:15 PM 44.6 °F 39.7 °F 37.4 °F 76% 29.46 in 10.0 mi South 9.2 mph 20.7 mph N/A   Mostly Cloudy
2:35 PM 44.6 °F 40.2 °F 37.4 °F 76% 29.45 in 10.0 mi SSE 8.1 mph - N/A   Mostly Cloudy
2:55 PM 44.6 °F 38.8 °F 37.4 °F 76% 29.46 in 10.0 mi South 11.5 mph 27.6 mph N/A   Overcast
3:15 PM 46.4 °F 41.5 °F 37.4 °F 71% 29.47 in 10.0 mi South 10.4 mph - N/A   Overcast
3:55 PM 46.4 °F 41.1 °F 37.4 °F 71% 29.47 in 10.0 mi South 11.5 mph 21.9 mph N/A   Mostly Cloudy
4:15 PM 46.4 °F 41.9 °F 37.4 °F 71% 29.47 in 10.0 mi South 9.2 mph 17.3 mph N/A   Mostly Cloudy
4:35 PM 46.4 °F 40.4 °F 37.4 °F 71% 29.47 in 10.0 mi South 13.8 mph 23.0 mph N/A   Partly Cloudy
4:55 PM 46.4 °F 41.5 °F 37.4 °F 71% 29.47 in 10.0 mi SSE 10.4 mph 20.7 mph N/A   Partly Cloudy
5:15 PM 46.4 °F 41.5 °F 37.4 °F 71% 29.48 in 10.0 mi SSE 10.4 mph 24.2 mph N/A   Scattered Clouds
5:35 PM 46.4 °F 40.7 °F 37.4 °F 71% 29.50 in 10.0 mi South 12.7 mph 27.6 mph N/A   Mostly Cloudy
6:15 PM 44.6 °F 38.4 °F 39.2 °F 81% 29.51 in 10.0 mi South 12.7 mph 26.5 mph N/A Rain Light Rain
6:35 PM 44.6 °F 39.2 °F 39.2 °F 81% 29.53 in 10.0 mi South 10.4 mph 23.0 mph N/A   Mostly Cloudy
7:15 PM 44.6 °F 38.4 °F 39.2 °F 81% 29.55 in 10.0 mi South 12.7 mph 23.0 mph N/A   Scattered Clouds
7:35 PM 44.6 °F 40.2 °F 37.4 °F 76% 29.57 in 10.0 mi South 8.1 mph 23.0 mph N/A   Scattered Clouds
7:55 PM 44.6 °F 40.7 °F 37.4 °F 76% 29.58 in 10.0 mi South 6.9 mph 17.3 mph N/A   Scattered Clouds
8:15 PM 44.6 °F 38.4 °F 37.4 °F 76% 29.59 in 10.0 mi South 12.7 mph 20.7 mph N/A   Mostly Cloudy
8:35 PM 44.6 °F 40.7 °F 37.4 °F 76% 29.60 in 10.0 mi South 6.9 mph 18.4 mph N/A   Mostly Cloudy
8:55 PM 44.6 °F 40.2 °F 37.4 °F 76% 29.61 in 10.0 mi South 8.1 mph 17.3 mph N/A   Mostly Cloudy
9:15 PM 44.6 °F 39.2 °F 37.4 °F 76% 29.61 in 10.0 mi South 10.4 mph 23.0 mph N/A   Mostly Cloudy
9:55 PM 44.6 °F 38.4 °F 37.4 °F 76% 29.63 in 10.0 mi South 12.7 mph 20.7 mph N/A   Overcast
10:15 PM 44.6 °F 39.2 °F 37.4 °F 76% 29.63 in 10.0 mi South 10.4 mph 19.6 mph N/A   Mostly Cloudy
10:35 PM 44.6 °F 39.7 °F 37.4 °F 76% 29.63 in 10.0 mi South 9.2 mph 18.4 mph N/A   Partly Cloudy
10:55 PM 44.6 °F 38.8 °F 37.4 °F 76% 29.63 in 10.0 mi South 11.5 mph 20.7 mph N/A   Clear
11:15 PM 44.6 °F 38.8 °F 37.4 °F 76% 29.64 in 10.0 mi South 11.5 mph 20.7 mph N/A   Scattered Clouds
11:35 PM 44.6 °F 38.4 °F 37.4 °F 76% 29.64 in 10.0 mi South 12.7 mph 21.9 mph N/A   Scattered Clouds
11:55 PM 44.6 °F 38.1 °F 35.6 °F 71% 29.65 in 10.0 mi South 13.8 mph 24.2 mph N/A   Mostly Cloudy